CAPE
0 0 0 0 0 4 14 5 0 0 0 0 0 0 7 155 258 344 285 320 311 161 91 11 5 0 0 57 260 238 203 131 84 7 2 27 39 0 0 0 0 0 0 0
0 0 0 0 0 5 7 2 0 0 0 0 0 0 11 125 193 271 248 213 264 302 159 51 84 38 30 105 270 306 259 146 84 23 0 1 0 0 0 0 0 0 0 0
0 0 0 0 0 0 0 0 0 0 0 0 0 0 0 65 152 217 241 252 241 314 343 240 198 127 82 146 232 353 277 117 47 2 0 0 0 0 0 0 0 0 0 0
0 0 0 0 0 0 0 0 0 0 0 0 0 0 0 1 148 145 261 254 236 224 336 416 393 365 211 225 259 345 304 116 4 0 0 0 0 0 0 0 0 0 0 0
0 0 0 0 0 0 0 0 0 0 0 0 0 0 0 0 39 137 192 227 196 164 202 326 415 459 416 303 239 284 316 249 5 0 0 0 0 0 0 0 0 0 0 0
0 0 0 0 0 0 0 0 0 0 0 0 0 0 0 0 0 0 70 151 201 99 42 114 235 328 508 359 268 265 283 246 63 0 0 0 0 0 0 0 0 0 0 0
0 0 0 0 0 0 0 0 0 0 0 0 0 0 0 0 0 0 0 0 91 143 67 11 37 130 324 411 283 253 232 201 83 7 0 0 0 0 0 0 0 0 0 0
0 0 0 0 0 0 0 0 0 0 0 0 0 0 0 0 0 0 0 0 0 0 7 26 5 18 122 269 285 248 244 73 41 72 29 0 0 0 0 0 0 0 0 0
0 0 0 0 0 0 0 0 0 0 0 0 0 0 0 0 0 0 0 0 0 0 0 44 14 32 55 123 193 229 268 152 91 50 21 0 0 0 0 0 0 0 0 0
0 0 0 0 0 0 0 0 0 0 0 0 0 0 0 0 0 0 0 0 0 0 0 0 49 159 154 131 154 168 191 190 20 8 0 0 0 0 0 0 0 0 0 0
0 0 0 0 0 0 0 0 0 0 0 0 0 0 0 0 0 0 0 0 0 0 0 24 134 249 274 261 160 95 27 19 0 0 0 0 0 0 0 0 0 0 0 0
0 0 0 0 0 0 0 0 0 0 0 0 0 0 0 0 0 0 0 0 0 0 16 102 186 188 197 251 121 58 39 10 0 0 0 0 0 0 0 0 0 0 0 0
0 0 0 0 0 0 0 0 0 0 0 0 0 0 0 0 0 0 0 0 0 0 9 104 170 210 208 53 29 74 0 0 0 0 0 0 0 0 0 0 0 0 0 0
0 0 0 0 0 0 0 0 0 0 0 0 0 0 0 0 0 0 0 0 0 0 1 59 113 121 29 22 8 0 0 0 0 0 0 0 0 0 0 0 0 0 0 0
0 0 0 0 0 0 0 0 0 0 0 0 0 0 0 0 0 0 0 0 0 0 0 1 51 36 4 0 0 0 0 0 0 0 0 0 0 0 0 0 0 0 0 0
0 0 0 0 0 0 0 0 0 0 0 0 0 0 0 0 0 0 0 0 0 0 0 0 0 0 0 0 0 0 0 0 0 0 0 0 0 0 0 0 0 0 0 0
0 0 0 0 0 0 0 0 0 0 0 0 0 0 0 0 0 0 0 0 0 0 0 0 0 0 0 0 0 0 0 0 0 0 0 0 0 0 0 0 0 0 0 0
0 0 0 0 0 0 0 0 0 0 0 0 0 0 0 0 0 0 0 0 0 0 0 0 0 0 0 0 0 0 0 0 0 0 0 0 0 0 0 0 0 0 0 0
0 0 0 0 0 0 0 0 0 0 0 0 0 0 0 0 0 0 0 0 0 0 0 0 0 0 0 0 0 0 0 0 0 0 0 0 0 0 0 0 0 0 0 0
0 0 0 0 0 0 0 0 0 0 0 0 0 0 0 0 0 0 0 0 0 0 0 0 0 0 0 0 0 0 0 0 0 0 0 0 0 0 0 0 0 0 0 0
0 0 0 0 0 0 0 0 0 0 0 0 0 0 0 0 0 0 0 0 0 0 0 0 0 0 0 0 0 0 0 0 0 0 0 0 0 0 0 0 0 0 0 0
0 0 0 0 0 0 0 0 0 0 0 0 0 0 0 0 0 0 0 0 0 0 0 0 0 0 0 0 0 0 0 0 0 0 0 0 0 0 0 0 0 0 0 0
0 0 0 0 0 0 0 0 0 0 0 0 0 0 0 0 0 0 0 0 0 0 0 0 0 0 0 0 0 0 0 0 0 0 0 0 0 0 0 0 0 0 0 0
0 0 0 0 0 0 0 0 0 0 0 0 0 0 0 0 0 0 0 0 0 0 0 0 0 0 0 0 0 0 0 0 0 0 0 0 0 0 0 0 0 0 0 0
0 0 0 0 0 0 0 0 0 0 0 0 0 0 0 0 0 0 0 0 0 0 0 0 0 0 0 0 0 0 0 0 0 0 0 0 0 0 0 0 0 0 0 0
0 0 0 0 0 0 0 0 0 0 0 0 0 0 0 0 0 0 0 0 0 0 0 0 0 0 0 0 0 0 0 0 0 0 0 0 0 0 0 0 0 0 0 0
CIN
-0 -0 -0 -0 -0 -87 -77 -71 -0 -0 -0 -0 -0 -0 -73 -148 -176 -140 -134 -139 -142 -165 -182 -284 -97 -0 -0 -263 -150 -147 -158 -195 -211 -260 -77 -188 -168 -0 -0 -0 -0 -0 -0 -0
-0 -0 -0 -0 -0 -78 -64 -25 -0 -0 -0 -0 -0 -0 -89 -134 -139 -182 -134 -161 -162 -159 -210 -255 -286 -330 -334 -283 -207 -167 -160 -219 -249 -272 -0 -118 -0 -0 -0 -0 -0 -0 -0 -0
-0 -0 -0 -0 -0 -0 -0 -0 -0 -0 -0 -0 -0 -0 -0 -169 -159 -179 -196 -169 -190 -185 -189 -227 -248 -296 -335 -316 -277 -201 -195 -246 -293 -141 -0 -0 -0 -0 -0 -0 -0 -0 -0 -0
-0 -0 -0 -0 -0 -0 -0 -0 -0 -0 -0 -0 -0 -0 -0 -7 -134 -162 -155 -188 -171 -165 -202 -192 -207 -258 -327 -291 -274 -240 -227 -258 -121 -0 -0 -0 -0 -0 -0 -0 -0 -0 -0 -0
-0 -0 -0 -0 -0 -0 -0 -0 -0 -0 -0 -0 -0 -0 -0 -0 -118 -129 -139 -151 -180 -195 -194 -185 -229 -238 -262 -291 -299 -261 -246 -239 -85 -0 -0 -0 -0 -0 -0 -0 -0 -0 -0 -0
-0 -0 -0 -0 -0 -0 -0 -0 -0 -0 -0 -0 -0 -0 -0 -0 -0 -0 -124 -136 -148 -196 -238 -242 -252 -265 -265 -319 -338 -311 -271 -236 -303 -0 -0 -0 -0 -0 -0 -0 -0 -0 -0 -0
-0 -0 -0 -0 -0 -0 -0 -0 -0 -0 -0 -0 -0 -0 -0 -0 -0 -0 -0 -20 -158 -185 -209 -254 -256 -272 -290 -278 -332 -318 -252 -191 -220 -294 -0 -0 -0 -0 -0 -0 -0 -0 -0 -0
-0 -0 -0 -0 -0 -0 -0 -0 -0 -0 -0 -0 -0 -0 -0 -0 -0 -0 -0 -0 -0 -0 -346 -272 -269 -308 -316 -296 -307 -302 -248 -95 -215 -234 -253 -0 -0 -0 -0 -0 -0 -0 -0 -0
-0 -0 -0 -0 -0 -0 -0 -0 -0 -0 -0 -0 -0 -0 -0 -0 -0 -0 -0 -0 -0 -0 -39 -227 -304 -347 -389 -316 -304 -290 -238 -203 -248 -278 -262 -0 -0 -0 -0 -0 -0 -0 -0 -0
-0 -0 -0 -0 -0 -0 -0 -0 -0 -0 -0 -0 -0 -0 -0 -0 -0 -0 -0 -0 -0 -0 -0 -0 -329 -349 -341 -391 -346 -350 -251 -206 -320 -185 -0 -0 -0 -0 -0 -0 -0 -0 -0 -0
-0 -0 -0 -0 -0 -0 -0 -0 -0 -0 -0 -0 -0 -0 -0 -0 -0 -0 -0 -0 -0 -0 -0 -300 -335 -349 -289 -300 -307 -265 -282 -320 -0 -0 -0 -0 -0 -0 -0 -0 -0 -0 -0 -0
-0 -0 -0 -0 -0 -0 -0 -0 -0 -0 -0 -0 -0 -0 -0 -0 -0 -0 -0 -0 -0 -0 -304 -336 -335 -356 -344 -281 -322 -311 -327 -360 -0 -0 -0 -0 -0 -0 -0 -0 -0 -0 -0 -0
-0 -0 -0 -0 -0 -0 -0 -0 -0 -0 -0 -0 -0 -0 -0 -0 -0 -0 -0 -0 -0 -0 -212 -286 -341 -308 -313 -384 -391 -289 -0 -0 -0 -0 -0 -0 -0 -0 -0 -0 -0 -0 -0 -0
-0 -0 -0 -0 -0 -0 -0 -0 -0 -0 -0 -0 -0 -0 -0 -0 -0 -0 -0 -0 -0 -0 -30 -239 -283 -299 -396 -373 -229 -0 -0 -0 -0 -0 -0 -0 -0 -0 -0 -0 -0 -0 -0 -0
-0 -0 -0 -0 -0 -0 -0 -0 -0 -0 -0 -0 -0 -0 -0 -0 -0 -0 -0 -0 -0 -0 -0 -22 -226 -301 -272 -0 -0 -0 -0 -0 -0 -0 -0 -0 -0 -0 -0 -0 -0 -0 -0 -0
-0 -0 -0 -0 -0 -0 -0 -0 -0 -0 -0 -0 -0 -0 -0 -0 -0 -0 -0 -0 -0 -0 -0 -0 -0 -0 -0 -0 -0 -0 -0 -0 -0 -0 -0 -0 -0 -0 -0 -0 -0 -0 -0 -0
-0 -0 -0 -0 -0 -0 -0 -0 -0 -0 -0 -0 -0 -0 -0 -0 -0 -0 -0 -0 -0 -0 -0 -0 -0 -0 -0 -0 -0 -0 -0 -0 -0 -0 -0 -0 -0 -0 -0 -0 -0 -0 -0 -0
-0 -0 -0 -0 -0 -0 -0 -0 -0 -0 -0 -0 -0 -0 -0 -0 -0 -0 -0 -0 -0 -0 -0 -0 -0 -0 -0 -0 -0 -0 -0 -0 -0 -0 -0 -0 -0 -0 -0 -0 -0 -0 -0 -0
-0 -0 -0 -0 -0 -0 -0 -0 -0 -0 -0 -0 -0 -0 -0 -0 -0 -0 -0 -0 -0 -0 -0 -0 -0 -0 -0 -0 -0 -0 -0 -0 -0 -0 -0 -0 -0 -0 -0 -0 -0 -0 -0 -0
-0 -0 -0 -0 -0 -0 -0 -0 -0 -0 -0 -0 -0 -0 -0 -0 -0 -0 -0 -0 -0 -0 -0 -0 -0 -0 -0 -0 -0 -0 -0 -0 -0 -0 -0 -0 -0 -0 -0 -0 -0 -0 -0 -0
-0 -0 -0 -0 -0 -0 -0 -0 -0 -0 -0 -0 -0 -0 -0 -0 -0 -0 -0 -0 -0 -0 -0 -0 -0 -0 -0 -0 -0 -0 -0 -0 -0 -0 -0 -0 -0 -0 -0 -0 -0 -0 -0 -0
-0 -0 -0 -0 -0 -0 -0 -0 -0 -0 -0 -0 -0 -0 -0 -0 -0 -0 -0 -0 -0 -0 -0 -0 -0 -0 -0 -0 -0 -0 -0 -0 -0 -0 -0 -0 -0 -0 -0 -0 -0 -0 -0 -0
-0 -0 -0 -0 -0 -0 -0 -0 -0 -0 -0 -0 -0 -0 -0 -0 -0 -0 -0 -0 -0 -0 -0 -0 -0 -0 -0 -0 -0 -0 -0 -0 -0 -0 -0 -0 -0 -0 -0 -0 -0 -0 -0 -0
-0 -0 -0 -0 -0 -0 -0 -0 -0 -0 -0 -0 -0 -0 -0 -0 -0 -0 -0 -0 -0 -0 -0 -0 -0 -0 -0 -0 -0 -0 -0 -0 -0 -0 -0 -0 -0 -0 -0 -0 -0 -0 -0 -0
-0 -0 -0 -0 -0 -0 -0 -0 -0 -0 -0 -0 -0 -0 -0 -0 -0 -0 -0 -0 -0 -0 -0 -0 -0 -0 -0 -0 -0 -0 -0 -0 -0 -0 -0 -0 -0 -0 -0 -0 -0 -0 -0 -0
-0 -0 -0 -0 -0 -0 -0 -0 -0 -0 -0 -0 -0 -0 -0 -0 -0 -0 -0 -0 -0 -0 -0 -0 -0 -0 -0 -0 -0 -0 -0 -0 -0 -0 -0 -0 -0 -0 -0 -0 -0 -0 -0 -0
Wind_Speed
15 15 11 20 16 9 17 18 22 21 20 19 23 7 9 18 20 21 22 25 26 27 28 29 29 30 30 28 27 23 18 20 15 8 7 5 5 4 6 5 6 8 7 7
13 12 18 14 15 12 18 20 21 23 19 21 12 13 13 18 21 22 23 24 26 27 29 29 28 27 28 27 25 23 22 18 12 8 5 4 3 5 6 8 9 7 7 7
12 10 16 13 13 22 19 21 21 21 20 17 12 14 10 15 24 25 26 25 27 28 28 28 29 29 27 25 22 19 17 13 7 4 2 10 9 12 10 7 6 6 6 6
8 15 17 14 10 16 20 20 19 20 19 19 16 18 6 10 21 27 27 27 27 28 26 24 24 25 23 21 14 13 12 10 7 6 4 3 4 2 5 3 3 5 6 6
7 14 6 11 22 10 21 19 19 19 18 17 16 17 15 9 15 27 29 26 24 27 29 26 20 18 16 12 10 9 9 14 5 9 7 6 5 7 5 2 4 4 5 7
4 18 19 20 9 9 19 19 18 18 18 18 17 15 17 13 14 21 28 27 24 20 23 22 11 6 9 7 7 9 11 14 9 13 9 8 6 5 4 4 5 5 6 7
5 11 15 13 14 12 12 14 17 17 19 19 20 20 20 27 27 22 20 20 24 24 22 18 12 10 10 10 10 10 10 8 8 9 8 7 7 7 7 6 6 6 8 8
9 8 9 11 10 10 13 13 16 19 18 20 20 24 27 23 27 27 28 7 10 11 18 19 16 11 14 14 11 9 10 8 13 11 9 7 8 7 7 7 6 8 9 9
6 4 13 12 13 12 11 12 12 16 20 23 25 27 19 21 20 21 20 15 5 6 11 19 16 19 13 14 13 11 9 13 9 9 8 8 7 8 7 7 8 10 9 10
2 5 12 15 14 15 15 9 15 18 20 23 24 24 23 26 20 19 19 18 15 7 3 6 6 10 10 9 9 7 7 9 8 6 6 6 6 6 6 7 8 8 9 10
1 3 9 16 15 14 16 15 17 16 16 22 26 22 16 25 21 22 20 18 14 11 7 2 2 3 6 5 4 6 5 4 5 5 4 5 5 7 9 9 9 9 9 11
4 4 11 8 20 17 18 17 15 19 18 21 23 29 19 18 22 24 23 22 19 14 10 6 3 2 1 3 1 2 2 3 4 5 6 8 9 11 9 8 9 9 9 12
3 5 7 4 17 19 18 16 15 16 17 22 11 22 21 23 26 24 25 26 24 19 13 9 7 3 4 7 6 6 8 9 11 11 11 10 10 8 9 9 10 10 13 15
5 7 4 13 7 17 17 16 15 18 26 24 9 30 34 34 30 29 24 28 27 24 18 14 12 11 11 10 10 11 12 13 13 11 10 11 10 13 14 15 15 14 14 14
6 8 7 10 14 15 17 19 20 20 23 23 23 26 33 32 28 26 24 21 19 22 23 22 21 17 15 15 15 15 14 15 14 14 14 13 14 15 15 15 15 15 17 18
10 11 10 6 12 14 18 17 18 24 26 27 27 35 30 27 22 21 19 17 17 18 20 22 22 22 21 19 16 15 15 15 14 15 15 15 15 16 16 15 16 17 15 16
12 9 10 6 14 17 10 9 15 23 23 24 19 31 24 22 20 20 17 15 15 17 18 20 21 22 23 22 18 18 18 17 16 15 16 16 15 16 17 18 18 19 19 22
13 10 14 12 13 12 19 22 19 19 24 24 30 27 18 14 14 15 16 13 15 17 18 20 22 23 24 23 22 20 19 18 16 16 16 15 15 15 16 18 19 21 23 26
16 11 15 14 13 25 26 19 17 18 25 18 19 14 9 6 10 14 15 14 14 16 18 20 22 23 23 23 21 20 20 18 17 17 17 17 16 16 18 22 22 24 26 27
16 17 16 16 15 13 27 15 14 18 21 12 9 4 2 5 10 12 12 14 16 18 19 20 21 21 21 21 20 20 19 18 18 17 17 18 18 20 21 22 25 25 26 27
18 20 18 19 23 27 20 18 10 18 24 6 3 2 2 9 13 9 10 14 16 17 18 19 19 20 20 20 19 20 20 20 19 18 19 20 21 22 23 24 25 26 26 27
19 18 20 21 23 28 15 13 12 16 16 3 3 3 5 8 8 9 11 14 15 16 17 17 18 19 20 20 20 20 21 20 20 21 22 24 23 24 25 26 26 27 29 29
24 21 21 21 25 21 12 15 9 11 8 2 1 1 2 4 8 9 11 13 14 14 15 16 17 19 20 21 21 22 22 22 22 24 25 25 26 27 28 29 31 31 32 33
26 21 25 23 23 21 18 15 13 9 6 3 3 1 1 4 6 8 10 11 12 14 15 15 17 19 21 22 23 23 23 24 24 25 27 28 30 32 31 32 33 33 35 36
24 17 22 27 27 23 20 15 11 8 6 4 6 6 4 5 7 8 9 11 12 14 14 15 18 19 21 22 24 25 26 25 26 27 29 31 33 34 35 35 35 36 36 36
22 21 20 24 21 18 17 9 7 6 6 6 4 7 8 7 8 8 10 11 12 14 15 17 18 19 21 22 24 25 26 27 28 30 32 34 36 36 37 39 40 36 38 39
Wind_Direction
51 348 60 161 120 4 251 258 245 248 259 278 218 44 110 143 152 157 157 166 169 171 173 168 167 171 171 171 169 161 146 148 133 116 106 88 95 18 357 41 18 11 21 28
77 70 245 279 271 280 263 266 252 249 288 270 280 145 134 147 161 160 155 163 169 176 183 176 170 165 169 171 171 168 166 156 146 138 119 333 36 349 347 341 352 21 32 40
115 9 269 297 284 238 259 254 246 242 260 271 319 311 123 156 179 183 187 183 188 185 177 177 178 177 174 173 169 167 165 158 157 157 294 304 311 312 317 334 5 19 28 24
97 301 291 301 316 263 239 225 246 247 252 263 294 286 26 150 176 189 191 187 189 191 183 176 175 176 177 175 163 163 165 170 175 171 183 202 208 272 307 316 354 7 7 9
105 325 344 312 246 322 232 236 256 257 268 302 319 316 330 334 177 201 201 194 191 191 192 186 178 179 176 175 177 176 176 178 202 183 192 203 249 294 312 303 318 347 357 357
57 292 271 262 323 328 265 285 287 289 295 310 320 340 322 317 181 202 206 203 199 192 192 192 198 232 200 206 197 194 185 186 190 185 197 206 229 267 274 279 285 311 329 342
25 315 284 291 294 308 310 315 299 304 303 306 293 307 269 260 272 227 203 200 203 201 199 200 219 240 239 215 203 199 201 217 219 203 211 230 244 245 242 245 257 276 300 320
141 139 305 299 302 307 309 317 310 304 310 300 306 293 289 318 290 283 267 180 187 197 196 200 205 228 205 203 207 212 217 201 201 212 228 253 250 253 261 257 255 279 292 303
94 110 298 295 299 312 319 319 330 325 311 299 294 294 339 332 318 307 312 338 80 153 174 189 191 197 204 201 201 204 212 208 215 229 253 260 255 249 253 264 272 285 296 301
76 117 301 295 303 303 305 330 315 312 312 306 301 306 306 301 319 323 323 325 336 19 108 159 176 188 192 198 209 218 214 217 245 250 258 262 253 258 270 273 276 281 296 306
285 293 295 299 294 301 302 304 305 316 319 306 305 316 336 306 307 308 320 332 348 351 357 36 81 138 163 171 201 214 228 249 272 275 279 283 279 294 296 289 291 292 300 306
217 312 192 278 294 305 305 299 298 297 306 305 315 302 325 321 304 304 311 320 324 334 347 351 18 50 140 168 201 223 278 297 296 306 309 306 305 307 303 292 291 295 298 305
213 301 207 255 299 297 297 301 308 308 312 297 317 311 322 308 305 304 306 308 305 313 325 333 330 322 302 302 302 297 307 313 316 313 310 306 299 300 300 300 300 304 312 318
218 289 229 197 251 303 294 294 303 301 287 298 302 296 291 291 298 298 312 305 299 293 306 316 320 318 317 314 309 308 311 314 315 312 307 300 298 310 316 318 316 315 314 314
255 261 266 288 296 299 300 298 293 296 297 297 306 302 293 300 305 310 315 319 314 294 295 302 308 315 319 317 314 317 317 318 320 317 313 310 311 313 317 317 317 317 316 320
275 282 286 270 299 302 299 300 301 296 296 296 297 289 300 309 321 322 324 325 322 315 311 310 314 316 318 320 323 322 321 320 320 316 314 316 316 317 318 319 319 318 319 323
262 264 277 226 299 302 282 248 294 300 298 298 289 295 303 308 314 319 326 329 332 332 330 328 331 333 333 336 339 337 335 335 332 329 328 326 325 326 329 332 332 328 326 324
253 257 278 284 298 227 300 311 312 306 304 301 296 297 298 305 321 325 325 332 335 336 335 335 337 339 342 346 348 349 348 348 347 344 342 340 338 336 336 334 332 329 328 326
268 255 275 278 280 294 303 313 315 315 312 315 309 307 313 330 330 322 328 336 339 340 343 343 344 345 347 349 354 358 358 359 357 353 351 349 345 342 338 331 330 326 322 321
270 270 270 288 290 284 308 317 320 319 310 324 319 307 307 321 311 318 332 339 341 344 345 346 349 354 357 360 5 5 4 4 1 1 358 352 347 339 336 333 329 328 327 325
262 269 267 280 291 297 312 325 333 308 315 311 269 236 277 308 316 339 346 339 345 348 351 356 359 1 3 7 9 8 7 3 1 358 353 349 343 338 334 333 331 330 329 328
252 259 272 286 290 295 320 327 305 319 331 305 260 260 297 322 339 342 340 343 346 350 360 4 6 6 8 11 10 6 2 1 358 354 350 347 345 341 339 337 335 333 330 328
261 267 269 277 289 303 319 318 320 331 337 71 136 303 319 336 331 340 342 348 354 0 6 7 9 9 7 5 5 0 360 358 355 351 349 348 346 342 340 337 334 332 330 328
269 273 275 282 286 298 304 311 318 321 334 355 330 1 335 333 342 345 350 355 358 0 1 9 8 1 359 2 1 359 357 355 354 351 348 347 343 340 340 338 336 332 330 328
273 269 275 281 287 294 295 298 303 310 321 325 322 318 321 336 337 343 348 351 354 355 0 3 357 356 356 359 358 357 356 355 351 349 346 344 342 340 338 337 335 333 331 328
267 274 270 281 286 284 293 285 293 292 301 307 304 316 323 324 330 339 341 347 349 352 355 355 355 355 355 357 356 355 354 353 349 345 343 342 340 340 339 336 334 335 332 331